Satellite: HRBE
Catalog number: 37855
Epoch time: 14058.86972807
Element set: 729
Inclination: 101.7185 deg
RA of node: 037.5678 deg
Eccentricity: 0.0223890
Arg of perigee: 011.4785 deg
Mean anomaly: 018.4578 deg
Mean motion: 14.87763072 rev/day
Decay rate: 2.9311e-04 rev/day^2
Epoch rev: 12641
Checksum: 335
Satellite: RS-39
Catalog number: 38051
Epoch time: 14058.82960201
Element set: 302
Inclination: 051.6307 deg
RA of node: 047.5615 deg
Eccentricity: 0.0009794
Arg of perigee: 106.6805 deg
Mean anomaly: 326.3911 deg
Mean motion: 15.45552537 rev/day
Decay rate: 8.0050e-04 rev/day^2
Epoch rev: 11711
Checksum: 284
Satellite: E-STAR
Catalog number: 38079
Epoch time: 14058.75666784
Element set: 762
Inclination: 069.4590 deg
RA of node: 274.8879 deg
Eccentricity: 0.0472716
Arg of perigee: 151.6615 deg
Mean anomaly: 308.6988 deg
Mean motion: 14.81667992 rev/day
Decay rate: 1.55985e-03 rev/day^2
Epoch rev: 10709
Checksum: 391
Satellite: GOLIAT
Catalog number: 38085
Epoch time: 14058.98843941
Element set: 842
Inclination: 069.4650 deg
RA of node: 279.2376 deg
Eccentricity: 0.0489033
Arg of perigee: 153.7378 deg
Mean anomaly: 322.6963 deg
Mean motion: 14.77768034 rev/day
Decay rate: 1.21144e-03 rev/day^2
Epoch rev: 10699
Checksum: 351
Satellite: HORYU-2
Catalog number: 38340
Epoch time: 14058.67013101
Element set: 778
Inclination: 098.2479 deg
RA of node: 014.1394 deg
Eccentricity: 0.0012415
Arg of perigee: 157.5600 deg
Mean anomaly: 202.6179 deg
Mean motion: 14.71908172 rev/day
Decay rate: 3.487e-05 rev/day^2
Epoch rev: 9568
Checksum: 303
Satellite: RS-40
Catalog number: 38735
Epoch time: 14058.94115462
Element set: 501
Inclination: 082.4798 deg
RA of node: 355.6578 deg
Eccentricity: 0.0017275
Arg of perigee: 129.6970 deg
Mean anomaly: 230.5641 deg
Mean motion: 12.42556777 rev/day
Decay rate: 2.4e-07 rev/day^2
Epoch rev: 7201
Checksum: 313
Satellite: PROITERES
Catalog number: 38756
Epoch time: 14058.96266784
Element set: 624
Inclination: 098.2307 deg
RA of node: 145.4730 deg
Eccentricity: 0.0012898
Arg of perigee: 018.2022 deg
Mean anomaly: 341.9617 deg
Mean motion: 14.74684497 rev/day
Decay rate: 1.551e-05 rev/day^2
Epoch rev: 7908
Checksum: 332
Satellite: BEESAT-3
Catalog number: 39134
Epoch time: 14057.57476677
Element set: 513
Inclination: 064.8775 deg
RA of node: 128.2108 deg
Eccentricity: 0.0017615
Arg of perigee: 327.9819 deg
Mean anomaly: 032.0241 deg
Mean motion: 15.03262178 rev/day
Decay rate: 1.1117e-04 rev/day^2
Epoch rev: 4702
Checksum: 295
Satellite: BEESAT-2
Catalog number: 39136
Epoch time: 14057.80083083
Element set: 502
Inclination: 064.8745 deg
RA of node: 127.6926 deg
Eccentricity: 0.0017858
Arg of perigee: 327.0488 deg
Mean anomaly: 032.9518 deg
Mean motion: 15.02906643 rev/day
Decay rate: 9.472e-05 rev/day^2
Epoch rev: 4705
Checksum: 317
Satellite: LO-75
Catalog number: 39382
Epoch time: 14058.15604748
Element set: 126
Inclination: 040.4989 deg
RA of node: 030.7513 deg
Eccentricity: 0.0006564
Arg of perigee: 199.6508 deg
Mean anomaly: 160.4574 deg
Mean motion: 15.28696817 rev/day
Decay rate: 6.7140e-04 rev/day^2
Epoch rev: 1512
Checksum: 326
Satellite: ZACUBE-1
Catalog number: 39417
Epoch time: 14058.42058714
Element set: 230
Inclination: 097.7855 deg
RA of node: 132.7935 deg
Eccentricity: 0.0061944
Arg of perigee: 238.8533 deg
Mean anomaly: 120.6592 deg
Mean motion: 14.77519061 rev/day
Decay rate: 2.965e-05 rev/day^2
Epoch rev: 1448
Checksum: 320
Satellite: TRITON-1
Catalog number: 39427
Epoch time: 14057.82850709
Element set: 82
Inclination: 097.7745 deg
RA of node: 130.2707 deg
Eccentricity: 0.0118323
Arg of perigee: 241.3688 deg
Mean anomaly: 117.5599 deg
Mean motion: 14.64882345 rev/day
Decay rate: 2.533e-05 rev/day^2
Epoch rev: 1423
Checksum: 315
Satellite: DELFIN3XT
Catalog number: 39428
Epoch time: 14058.81645004
Element set: 87
Inclination: 097.7732 deg
RA of node: 130.8208 deg
Eccentricity: 0.0129457
Arg of perigee: 238.7051 deg
Mean anomaly: 120.1445 deg
Mean motion: 14.62488933 rev/day
Decay rate: 4.130e-05 rev/day^2
Epoch rev: 1434
Checksum: 294
Satellite: GOMX-1
Catalog number: 39430
Epoch time: 14058.74362586
Element set: 262
Inclination: 097.7710 deg
RA of node: 129.8316 deg
Eccentricity: 0.0157062
Arg of perigee: 241.0055 deg
Mean anomaly: 117.5332 deg
Mean motion: 14.56335259 rev/day
Decay rate: 2.475e-05 rev/day^2
Epoch rev: 1428
Checksum: 295
Satellite: $50SAT
Catalog number: 39436
Epoch time: 14058.26230829
Element set: 109
Inclination: 097.7885 deg
RA of node: 133.7931 deg
Eccentricity: 0.0028848
Arg of perigee: 249.9504 deg
Mean anomaly: 109.8665 deg
Mean motion: 14.86182520 rev/day
Decay rate: 2.0139e-04 rev/day^2
Epoch rev: 1452
Checksum: 330
Satellite: LO-74
Catalog number: 39440
Epoch time: 14057.80205148
Element set: 80
Inclination: 097.7815 deg
RA of node: 131.4222 deg
Eccentricity: 0.0083934
Arg of perigee: 240.1210 deg
Mean anomaly: 119.1663 deg
Mean motion: 14.72495143 rev/day
Decay rate: 2.841e-05 rev/day^2
Epoch rev: 1433
Checksum: 275
Satellite: PUCPSAT-1
Catalog number: 39442
Epoch time: 14058.18907018
Element set: 77
Inclination: 097.7890 deg
RA of node: 133.7478 deg
Eccentricity: 0.0034365
Arg of perigee: 245.7237 deg
Mean anomaly: 114.0442 deg
Mean motion: 14.85221016 rev/day
Decay rate: 4.633e-05 rev/day^2
Epoch rev: 1329
Checksum: 299
/EX